When you browse on this site, cookies collect data to enhance your experience and personalize the content and advertising you see.
Visit our Privacy Policy to learn more. By continuing to use the site, you agree to this use of cookies and data.
  • In Schweiz
  • Länderverzeichnis
  • Für 7 Tage
  • Wassertemperatur
  • Wetterkarte
  • Widgets
  • user-avatar
    Anmelden

    Stündliche Wetter Freising

    Heute, 29 Mai, Freitag

    Zeit Temperatur Niederschläge Wind Luftdruck Luftfeuchtigkeit
    00:00 +7°C° 0 mm 2 m/S 729 mmHg 86%
    01:00 +8°C° 0 mm 1 m/S 729 mmHg 89%
    02:00 +7°C° 0 mm 1 m/S 729 mmHg 90%
    03:00 +7°C° 0 mm 1 m/S 728 mmHg 91%
    04:00 +6°C° 0 mm 1 m/S 728 mmHg 92%
    05:00 +8°C° 0 mm 1 m/S 728 mmHg 88%
    06:00 +8°C° 0 mm 2 m/S 728 mmHg 84%
    07:00 +9°C° 0 mm 2 m/S 728 mmHg 80%
    08:00 +12°C° 0 mm 2 m/S 728 mmHg 75%
    09:00 +13°C° 0 mm 3 m/S 727 mmHg 69%
    10:00 +14°C° 0 mm 3 m/S 727 mmHg 63%
    11:00 +16°C° 0.1 mm 3 m/S 727 mmHg 61%
    12:00 +17°C° 0.1 mm 4 m/S 727 mmHg 60%
    13:00 +17°C° 0.1 mm 4 m/S 726 mmHg 59%
    14:00 +17°C° 0.2 mm 4 m/S 726 mmHg 60%
    15:00 +17°C° 0.2 mm 4 m/S 725 mmHg 61%
    16:00 +16°C° 0.2 mm 5 m/S 725 mmHg 62%
    17:00 +15°C° 0 mm 4 m/S 725 mmHg 65%
    18:00 +14°C° 0 mm 4 m/S 725 mmHg 68%
    19:00 +13°C° 0 mm 3 m/S 725 mmHg 71%
    20:00 +11°C° 0 mm 3 m/S 725 mmHg 72%
    21:00 +10°C° 0 mm 4 m/S 725 mmHg 73%
    22:00 +7°C° 0 mm 4 m/S 725 mmHg 74%
    23:00 +8°C° 0 mm 3 m/S 725 mmHg 76%

    Morgen, 30 Mai, Samstag

    Zeit Temperatur Niederschläge Wind Luftdruck Luftfeuchtigkeit
    00:00 +7°C° 0 mm 3 m/S 725 mmHg 79%
    01:00 +5°C° 0 mm 3 m/S 725 mmHg 81%
    02:00 +5°C° 0 mm 3 m/S 725 mmHg 82%
    03:00 +4°C° 0 mm 3 m/S 725 mmHg 84%
    04:00 +5°C° 0 mm 2 m/S 724 mmHg 86%
    05:00 +6°C° 0 mm 2 m/S 724 mmHg 82%
    06:00 +8°C° 0 mm 2 m/S 724 mmHg 79%
    07:00 +9°C° 0 mm 2 m/S 724 mmHg 76%
    08:00 +12°C° 0 mm 2 m/S 724 mmHg 70%
    09:00 +12°C° 0 mm 3 m/S 724 mmHg 65%
    10:00 +13°C° 0 mm 3 m/S 724 mmHg 59%
    11:00 +14°C° 0.1 mm 3 m/S 724 mmHg 59%
    12:00 +14°C° 0.1 mm 3 m/S 724 mmHg 59%
    13:00 +14°C° 0.1 mm 3 m/S 723 mmHg 58%
    14:00 +16°C° 0 mm 3 m/S 723 mmHg 58%
    15:00 +16°C° 0 mm 3 m/S 723 mmHg 57%
    16:00 +16°C° 0 mm 3 m/S 723 mmHg 56%
    17:00 +14°C° 0 mm 3 m/S 723 mmHg 61%
    18:00 +13°C° 0 mm 3 m/S 723 mmHg 66%
    19:00 +12°C° 0 mm 3 m/S 723 mmHg 70%
    20:00 +10°C° 0 mm 3 m/S 724 mmHg 73%
    21:00 +9°C° 0 mm 3 m/S 724 mmHg 76%
    22:00 +8°C° 0 mm 3 m/S 724 mmHg 78%
    23:00 +7°C° 0 mm 2 m/S 724 mmHg 81%

    übermorgen, 31 Mai, Sonntag

    Zeit Temperatur Niederschläge Wind Luftdruck Luftfeuchtigkeit
    00:00 +6°C° 0 mm 2 m/S 724 mmHg 84%
    01:00 +5°C° 0 mm 2 m/S 723 mmHg 87%
    02:00 +6°C° 0 mm 1 m/S 723 mmHg 88%
    03:00 +6°C° 0 mm 1 m/S 723 mmHg 89%
    04:00 +5°C° 0 mm 1 m/S 723 mmHg 90%
    05:00 +7°C° 0 mm 1 m/S 723 mmHg 86%
    06:00 +8°C° 0 mm 1 m/S 723 mmHg 81%
    07:00 +10°C° 0 mm 1 m/S 723 mmHg 76%
    08:00 +11°C° 0 mm 1 m/S 723 mmHg 71%
    09:00 +13°C° 0 mm 2 m/S 723 mmHg 66%
    10:00 +14°C° 0 mm 2 m/S 723 mmHg 61%
    11:00 +15°C° 0 mm 2 m/S 723 mmHg 58%
    12:00 +16°C° 0 mm 2 m/S 723 mmHg 55%
    13:00 +17°C° 0 mm 2 m/S 723 mmHg 53%
    14:00 +16°C° 0 mm 2 m/S 723 mmHg 56%
    15:00 +16°C° 0 mm 2 m/S 723 mmHg 58%
    16:00 +16°C° 0 mm 2 m/S 723 mmHg 61%
    17:00 +15°C° 0 mm 2 m/S 724 mmHg 68%
    18:00 +14°C° 0 mm 2 m/S 724 mmHg 75%
    19:00 +13°C° 0 mm 2 m/S 724 mmHg 81%
    20:00 +12°C° 0 mm 2 m/S 724 mmHg 82%
    21:00 +12°C° 0 mm 1 m/S 724 mmHg 83%
    22:00 +11°C° 0 mm 1 m/S 724 mmHg 84%
    23:00 +11°C° 0 mm 1 m/S 724 mmHg 84%

    1 Juni, Montag

    Zeit Temperatur Niederschläge Wind Luftdruck Luftfeuchtigkeit
    00:00 +11°C° 0 mm 1 m/S 724 mmHg 84%
    01:00 +11°C° 0 mm 1 m/S 724 mmHg 84%
    02:00 +10°C° 0 mm 1 m/S 723 mmHg 86%
    03:00 +9°C° 0 mm 1 m/S 723 mmHg 88%
    04:00 +9°C° 0 mm 1 m/S 723 mmHg 90%
    05:00 +10°C° 0 mm 1 m/S 723 mmHg 88%
    06:00 +11°C° 0 mm 1 m/S 723 mmHg 86%
    07:00 +13°C° 0 mm 2 m/S 723 mmHg 84%
    08:00 +14°C° 0 mm 2 m/S 723 mmHg 82%
    09:00 +15°C° 0 mm 2 m/S 723 mmHg 80%
    10:00 +16°C° 0 mm 3 m/S 723 mmHg 77%
    11:00 +17°C° 0.2 mm 3 m/S 722 mmHg 75%
    12:00 +18°C° 0.2 mm 4 m/S 722 mmHg 72%
    13:00 +19°C° 0.2 mm 4 m/S 722 mmHg 69%
    14:00 +19°C° 0.2 mm 4 m/S 722 mmHg 70%
    15:00 +19°C° 0.2 mm 4 m/S 721 mmHg 70%
    16:00 +19°C° 0.2 mm 4 m/S 721 mmHg 70%
    17:00 +18°C° 0 mm 4 m/S 721 mmHg 74%
    18:00 +17°C° 0 mm 3 m/S 721 mmHg 78%
    19:00 +17°C° 0 mm 2 m/S 721 mmHg 81%
    20:00 +14°C° 0 mm 3 m/S 721 mmHg 85%
    21:00 +13°C° 0 mm 3 m/S 721 mmHg 88%
    22:00 +11°C° 0 mm 3 m/S 721 mmHg 91%
    23:00 +11°C° 0 mm 3 m/S 721 mmHg 92%

    2 Juni, Dienstag

    Zeit Temperatur Niederschläge Wind Luftdruck Luftfeuchtigkeit
    00:00 +10°C° 0 mm 3 m/S 721 mmHg 94%
    01:00 +10°C° 0 mm 3 m/S 720 mmHg 95%
    02:00 +10°C° 0 mm 3 m/S 720 mmHg 95%
    03:00 +9°C° 0 mm 3 m/S 720 mmHg 95%
    04:00 +9°C° 0 mm 3 m/S 720 mmHg 96%
    05:00 +10°C° 0 mm 4 m/S 719 mmHg 93%
    06:00 +11°C° 0 mm 4 m/S 719 mmHg 90%
    07:00 +12°C° 0 mm 5 m/S 719 mmHg 87%
    08:00 +14°C° 0 mm 5 m/S 719 mmHg 82%
    09:00 +15°C° 0 mm 6 m/S 719 mmHg 76%
    10:00 +17°C° 0 mm 6 m/S 719 mmHg 70%
    11:00 +19°C° 0 mm 6 m/S 718 mmHg 66%
    12:00 +21°C° 0 mm 6 m/S 718 mmHg 62%
    13:00 +22°C° 0 mm 6 m/S 718 mmHg 58%
    14:00 +22°C° 0 mm 6 m/S 717 mmHg 58%
    15:00 +22°C° 0 mm 6 m/S 717 mmHg 58%
    16:00 +22°C° 0 mm 6 m/S 716 mmHg 59%
    17:00 +21°C° 0 mm 6 m/S 716 mmHg 64%
    18:00 +20°C° 0 mm 5 m/S 716 mmHg 69%
    19:00 +19°C° 0 mm 5 m/S 715 mmHg 74%
    20:00 +16°C° 0 mm 5 m/S 715 mmHg 75%
    21:00 +15°C° 0 mm 5 m/S 715 mmHg 76%
    22:00 +14°C° 0 mm 5 m/S 715 mmHg 77%
    23:00 +14°C° 0 mm 4 m/S 715 mmHg 80%

    3 Juni, Mittwoch

    Zeit Temperatur Niederschläge Wind Luftdruck Luftfeuchtigkeit
    00:00 +13°C° 0 mm 4 m/S 715 mmHg 82%
    01:00 +12°C° 0 mm 3 m/S 715 mmHg 85%
    02:00 +12°C° 0 mm 3 m/S 715 mmHg 87%
    03:00 +11°C° 0 mm 3 m/S 715 mmHg 89%
    04:00 +12°C° 0 mm 2 m/S 715 mmHg 92%
    05:00 +12°C° 0 mm 3 m/S 715 mmHg 88%
    06:00 +13°C° 0 mm 3 m/S 715 mmHg 85%
    07:00 +16°C° 0 mm 3 m/S 715 mmHg 81%
    08:00 +17°C° 0 mm 3 m/S 716 mmHg 76%
    09:00 +18°C° 0 mm 2 m/S 716 mmHg 71%
    10:00 +20°C° 0 mm 2 m/S 716 mmHg 65%
    11:00 +21°C° 0 mm 2 m/S 716 mmHg 62%
    12:00 +23°C° 0 mm 1 m/S 716 mmHg 59%
    13:00 +24°C° 0 mm 1 m/S 716 mmHg 55%
    14:00 +24°C° 0.1 mm 1 m/S 715 mmHg 56%
    15:00 +24°C° 0.1 mm 2 m/S 715 mmHg 56%
    16:00 +24°C° 0.1 mm 2 m/S 715 mmHg 56%
    17:00 +23°C° 0 mm 2 m/S 715 mmHg 62%
    18:00 +22°C° 0 mm 1 m/S 715 mmHg 68%
    19:00 +21°C° 0 mm 1 m/S 715 mmHg 74%
    20:00 +20°C° 0.1 mm 1 m/S 715 mmHg 76%
    21:00 +19°C° 0.1 mm 1 m/S 716 mmHg 78%
    22:00 +18°C° 0.1 mm 1 m/S 716 mmHg 80%
    23:00 +16°C° 0 mm 1 m/S 716 mmHg 82%
    Mehr zeigen